IZ3LSV-13 Weather Reports


time (UTC)temp
C
wind
direction
speed
KPH
gust
KPH
rain 1hr
cm
rain 24hr
cm
rain mn
cm
humidity
%
barometer
mb
20260507112820 26 0 0.0 0.0 0.00 0.00 0.00 1108.0
20260507112315 26 89 0.0 0.0 0.00 0.00 0.00 1108.1
20260507111809 26 37 0.0 0.0 0.00 0.00 0.00 1108.0
20260507111304 26 56 0.0 0.0 0.00 0.00 0.00 1108.1
20260507110758 26 5 0.0 0.0 0.00 0.00 0.00 1108.1
20260507110252 26 19 0.0 0.0 0.00 0.00 0.00 1108.1
20260507105746 26 0 0.0 0.0 0.00 0.00 0.00 1108.2
20260507105241 26 95 0.0 3.2 0.00 0.00 0.00 1108.1
20260507104736 26 21 0.0 3.2 0.00 0.00 0.00 1108.3
20260507104230 26 49 0.0 0.0 0.00 0.00 0.00 1108.2
20260507103725 26 45 0.0 0.0 0.00 0.00 0.00 1108.2
20260507103219 27 29 0.0 0.0 0.00 0.00 0.00 1108.3
20260507102714 27 79 0.0 0.0 0.00 0.00 0.00 1108.3
20260507102209 27 40 0.0 0.0 0.00 0.00 0.00 1108.3
20260507101703 27 56 0.0 0.0 0.00 0.00 0.00 1108.3
20260507101158 27 41 0.0 3.2 0.00 0.00 0.00 1108.4
20260507100652 27 58 0.0 3.2 0.00 0.00 0.00 1108.4
20260507100147 27 45 0.0 3.2 0.00 0.00 0.00 1108.3
20260507095642 27 58 0.0 0.0 0.00 0.00 0.00 1108.5
20260507095136 27 70 0.0 0.0 0.00 0.00 0.00 1108.3
20260507094631 26 89 0.0 0.0 0.00 0.00 0.00 1108.4
20260507094125 26 46 0.0 0.0 0.00 0.00 0.00 1108.3
20260507093620 26 45 0.0 0.0 0.00 0.00 0.00 1108.4
20260507093115 26 45 0.0 0.0 0.00 0.00 0.00 1108.3
20260507092609 26 62 0.0 0.0 0.00 0.00 0.00 1108.3
20260507092104 26 45 0.0 0.0 0.00 0.00 0.00 1108.3
20260507091558 26 134 0.0 0.0 0.00 0.00 0.00 1108.3
20260507091053 26 45 0.0 0.0 0.00 0.00 0.00 1108.3
20260507090547 26 32 0.0 0.0 0.00 0.00 0.00 1108.3
20260507090041 26 0 0.0 0.0 0.00 0.00 0.00 1108.3
20260507085536 26 0 0.0 0.0 0.00 0.00 0.00 1108.3
20260507085030 25 315 0.0 0.0 0.00 0.00 0.00 1108.2
20260507084525 25 329 0.0 0.0 0.00 0.00 0.00 1108.2
20260507084019 25 0 0.0 0.0 0.00 0.00 0.00 1108.2
20260507083514 24 0 0.0 0.0 0.00 0.00 0.00 1108.2
20260507083009 23 0 0.0 0.0 0.00 0.00 0.00 1108.1
20260507082503 23 0 0.0 3.2 0.00 0.00 0.00 1108.2
20260507081958 23 0 0.0 3.2 0.00 0.00 0.00 1108.1
20260507081452 23 327 0.0 0.0 0.00 0.00 0.00 1108.0
20260507080946 23 159 0.0 0.0 0.00 0.00 0.00 1108.0
20260507080441 23 315 0.0 0.0 0.00 0.00 0.00 1108.1
20260507075935 23 315 0.0 0.0 0.00 0.00 0.00 1108.0
20260507075429 23 315 0.0 4.8 0.00 0.00 0.00 1108.0
20260507074923 23 12 1.6 4.8 0.00 0.00 0.00 1108.0
20260507074733 23 276 0.0 0.0 0.00 0.00 0.00 1107.9
20260507074418 23 315 0.0 0.0 0.00 0.00 0.00 1108.0
20260507073912 23 276 0.0 0.0 0.00 0.00 0.00 1107.9
20260507073407 23 270 0.0 0.0 0.00 0.00 0.00 1108.0
20260507072902 23 155 0.0 3.2 0.00 0.00 0.00 1108.0
20260507072356 23 20 0.0 4.8 0.00 0.00 0.00 1108.0
20260507071345 23 351 0.0 4.8 0.00 0.00 0.00 1107.9
20260507070840 22 30 0.0 3.2 0.00 0.00 0.00 1108.0
20260507070334 22 30 0.0 6.4 0.00 0.00 0.00 1107.9
20260507065829 22 33 1.6 6.4 0.00 0.00 0.00 1107.9
20260507065323 22 358 0.0 3.2 0.00 0.00 0.00 1107.9
20260507064817 21 0 0.0 3.2 0.00 0.00 0.00 1107.9
20260507064312 21 46 0.0 0.0 0.00 0.00 0.00 1107.9
20260507063806 21 168 0.0 0.0 0.00 0.00 0.00 1107.8
20260507063301 21 35 0.0 0.0 0.00 0.00 0.00 1107.8
20260507062754 21 332 0.0 0.0 0.00 0.00 0.00 1107.7
20260507062249 21 12 0.0 0.0 0.00 0.00 0.00 1107.8
20260507061744 21 328 0.0 0.0 0.00 0.00 0.00 1107.7
20260507061238 22 356 0.0 0.0 0.00 0.00 0.00 1107.6
20260507060732 22 84 0.0 3.2 0.00 0.00 0.00 1107.5
20260507060226 22 61 0.0 3.2 0.00 0.00 0.00 1107.5
20260507055721 22 54 0.0 3.2 0.00 0.00 0.00 1107.5
20260507055215 22 340 0.0 4.8 0.00 0.00 0.00 1107.3
20260507054709 22 344 0.0 4.8 0.00 0.00 0.00 1107.2
20260507054204 22 64 0.0 0.0 0.00 0.00 0.00 1107.3
20260507053658 23 180 0.0 0.0 0.00 0.00 0.00 1107.1
20260507053153 23 315 0.0 0.0 0.00 0.00 0.00 1107.1
20260507052648 23 315 0.0 0.0 0.00 0.00 0.00 1107.0
20260507052142 22 252 0.0 0.0 0.00 0.00 0.00 1106.9
20260507051637 20 197 0.0 0.0 0.00 0.00 0.00 1106.8
20260507051131 20 13 0.0 0.0 0.00 0.00 0.00 1106.8
20260507050626 20 45 0.0 0.0 0.00 0.00 0.00 1106.6
20260507050120 20 44 0.0 0.0 0.00 0.00 0.00 1106.6
20260507045615 19 0 0.0 0.0 0.00 0.00 0.00 1106.7
20260507045110 19 0 0.0 0.0 0.00 0.00 0.00 1106.6
20260507044604 19 79 0.0 0.0 0.00 0.00 0.00 1106.4
20260507044059 19 3 0.0 0.0 0.00 0.00 0.00 1106.4
20260507043553 18 3 0.0 0.0 0.00 0.00 0.00 1106.3
20260507043048 18 3 0.0 0.0 0.00 0.00 0.00 1106.3
20260507042543 18 1 0.0 0.0 0.00 0.00 0.00 1106.3
20260507042037 18 0 0.0 0.0 0.00 0.00 0.00 1106.3
20260507041532 18 136 0.0 4.8 0.00 0.00 0.00 1106.3
20260507041026 18 200 0.0 4.8 0.00 0.00 0.00 1106.3
20260507040521 18 96 0.0 4.8 0.00 0.00 0.00 1106.2
20260507040016 18 315 0.0 4.8 0.00 0.00 0.00 1106.2
20260507035510 18 15 0.0 4.8 0.00 0.00 0.00 1106.1
20260507035005 18 317 0.0 4.8 0.00 0.00 0.00 1106.0
20260507034459 18 40 1.6 6.4 0.00 0.00 0.00 1106.0
20260507033954 18 55 1.6 9.7 0.00 0.00 0.00 1106.1
20260507033448 18 11 1.6 9.7 0.00 0.00 0.00 1106.1
20260507032942 18 182 1.6 8.0 0.00 0.00 0.00 1106.1
20260507032437 18 34 3.2 8.0 0.00 0.00 0.00 1106.1
20260507031931 18 36 0.0 3.2 0.00 0.00 0.00 1106.1
20260507031426 18 18 0.0 3.2 0.00 0.00 0.00 1106.1
20260507030920 17 268 0.0 4.8 0.00 0.00 0.00 1106.1
20260507030415 17 43 0.0 4.8 0.00 0.00 0.00 1106.2
20260507025908 17 63 0.0 4.8 0.00 0.00 0.00 1106.2
20260507025403 17 37 0.0 4.8 0.00 0.00 0.00 1106.1
20260507024352 17 23 0.0 4.8 0.00 0.00 0.00 1106.0
20260507023847 17 200 0.0 0.0 0.00 0.00 0.00 1106.1
20260507023341 17 0 0.0 0.0 0.00 0.00 0.00 1106.0
20260507022836 17 45 0.0 0.0 0.00 0.00 0.00 1106.0
20260507022331 17 0 0.0 0.0 0.00 0.00 0.00 1106.0
20260507021825 17 0 0.0 0.0 0.00 0.00 0.00 1106.1
20260507021320 17 0 0.0 0.0 0.00 0.00 0.00 1106.1
20260507020814 17 0 0.0 0.0 0.00 0.00 0.00 1106.2
20260507020309 17 0 0.0 0.0 0.00 0.00 0.00 1106.1
20260507015804 17 0 0.0 0.0 0.00 0.00 0.00 1106.1
20260507015258 17 45 0.0 0.0 0.00 0.00 0.00 1106.1
20260507014753 17 45 0.0 0.0 0.00 0.00 0.00 1106.1
20260507014247 17 45 0.0 3.2 0.00 0.00 0.00 1106.1
20260507013742 17 30 0.0 3.2 0.00 0.00 0.00 1105.9
20260507013237 17 14 0.0 3.2 0.00 0.00 0.00 1106.0
20260507012731 17 275 0.0 4.8 0.00 0.00 0.00 1105.9
20260507012226 18 0 0.0 3.2 0.00 0.00 0.00 1105.9
20260507011720 18 14 0.0 3.2 0.00 0.00 0.00 1106.0
20260507011215 18 0 0.0 0.0 0.00 0.00 0.00 1105.9
20260507010709 18 0 0.0 0.0 0.00 0.00 0.00 1106.0
20260507010204 18 315 0.0 0.0 0.00 0.00 0.00 1106.0
20260507005659 18 315 0.0 0.0 0.00 0.00 0.00 1106.0
20260507005153 18 315 0.0 0.0 0.00 0.00 0.00 1106.0
20260507004648 18 315 0.0 0.0 0.00 0.00 0.00 1106.1
20260507004142 18 315 0.0 0.0 0.00 0.00 0.00 1106.0
20260507003637 18 315 0.0 0.0 0.00 0.00 0.00 1105.9
20260507003132 18 315 0.0 0.0 0.00 0.00 0.00 1105.9
20260507002626 18 315 0.0 0.0 0.00 0.00 0.00 1105.8
20260507002121 18 315 0.0 0.0 0.00 0.00 0.00 1105.8
20260507001615 18 315 0.0 0.0 0.00 0.00 0.00 1105.8
20260507001110 18 315 0.0 0.0 0.00 0.00 0.00 1106.0
20260507000605 18 315 0.0 0.0 0.00 0.00 0.00 1105.9
20260507000059 18 315 0.0 0.0 0.00 0.00 0.00 1105.9
20260506235554 18 315 0.0 0.0 0.00 0.00 0.00 1105.9
20260506235048 18 315 0.0 0.0 0.00 0.00 0.00 1106.1
20260506234543 18 315 0.0 0.0 0.00 0.00 0.00 1106.0
20260506234037 18 315 0.0 0.0 0.00 0.00 0.00 1106.0
20260506233532 18 315 0.0 0.0 0.00 0.00 0.00 1106.0
20260506233026 18 315 0.0 0.0 0.00 0.00 0.00 1106.0
20260506232521 18 315 0.0 0.0 0.00 0.00 0.00 1106.1
20260506232016 18 315 0.0 0.0 0.00 0.00 0.00 1106.0
20260506231510 18 315 0.0 0.0 0.00 0.00 0.00 1106.1
20260506231005 18 315 0.0 0.0 0.00 0.00 0.00 1106.0
20260506230500 18 315 0.0 0.0 0.00 0.00 0.00 1106.0
20260506225954 18 315 0.0 0.0 0.00 0.00 0.00 1106.0
20260506225449 18 41 0.0 0.0 0.00 0.00 0.00 1106.1
20260506224943 18 5 0.0 0.0 0.00 0.00 0.00 1106.1
20260506224438 18 0 0.0 0.0 0.00 0.00 0.00 1106.0
20260506223932 18 150 0.0 0.0 0.00 0.00 0.00 1106.1
20260506223427 18 225 0.0 0.0 0.00 0.00 0.00 1106.0
20260506222921 18 149 0.0 0.0 0.00 0.00 0.00 1106.1
20260506222416 18 135 0.0 0.0 0.00 0.00 0.00 1106.2
20260506221405 19 270 0.0 0.0 0.00 0.00 0.00 1106.1
20260506220900 19 289 0.0 0.0 0.00 0.00 0.00 1106.1
20260506220354 19 24 0.0 0.0 0.00 0.00 0.00 1106.0
20260506215849 19 270 0.0 0.0 0.00 0.00 0.00 1106.0
20260506215343 19 270 0.0 0.0 0.00 0.00 0.00 1105.9
20260506214838 19 135 0.0 0.0 0.00 0.00 0.00 1105.9
20260506214333 19 135 0.0 0.0 0.00 0.00 0.00 1106.0
20260506213827 19 135 0.0 0.0 0.00 0.00 0.00 1105.8
20260506213322 19 251 0.0 0.0 0.00 0.00 0.00 1105.9
20260506212816 19 0 0.0 0.0 0.00 0.00 0.00 1106.0
20260506212311 19 0 0.0 0.0 0.00 0.00 0.00 1105.9
20260506211805 19 0 0.0 0.0 0.00 0.00 0.00 1106.0
20260506211300 19 0 0.0 0.0 0.00 0.00 0.00 1105.9
20260506210755 19 0 0.0 0.0 0.00 0.00 0.00 1105.9
20260506210248 19 0 0.0 0.0 0.00 0.00 0.00 1105.9
20260506205743 19 0 0.0 0.0 0.00 0.00 0.00 1105.8
20260506205237 20 0 0.0 0.0 0.00 0.00 0.00 1105.8
20260506204732 20 0 0.0 0.0 0.00 0.00 0.00 1105.9
20260506204227 20 0 0.0 0.0 0.00 0.00 0.00 1105.9
20260506203721 20 0 0.0 0.0 0.00 0.00 0.00 1106.0
20260506203216 20 0 0.0 0.0 0.00 0.00 0.00 1106.0
20260506202709 20 0 0.0 0.0 0.00 0.00 0.00 1105.8
20260506202204 20 0 0.0 0.0 0.00 0.00 0.00 1105.8
20260506201657 20 0 0.0 0.0 0.00 0.00 0.00 1105.8
20260506201152 20 0 0.0 0.0 0.00 0.00 0.00 1105.9
20260506200646 20 0 0.0 0.0 0.00 0.00 0.00 1105.8
20260506200141 20 0 0.0 0.0 0.00 0.00 0.00 1105.8
20260506195636 20 0 0.0 0.0 0.00 0.00 0.00 1105.7
20260506195130 20 0 0.0 0.0 0.00 0.00 0.00 1105.7
20260506194625 20 0 0.0 0.0 0.00 0.00 0.00 1105.7
20260506194120 20 0 0.0 0.0 0.00 0.00 0.00 1105.7
20260506193614 20 0 0.0 0.0 0.00 0.00 0.00 1105.7
20260506193109 20 0 0.0 0.0 0.00 0.00 0.00 1105.6
20260506192603 20 0 0.0 0.0 0.00 0.00 0.00 1105.6
20260506192058 20 0 0.0 0.0 0.00 0.00 0.00 1105.4
20260506191552 20 0 0.0 0.0 0.00 0.00 0.00 1105.5
20260506191047 20 0 0.0 0.0 0.00 0.00 0.00 1105.4
20260506190542 20 0 0.0 0.0 0.00 0.00 0.00 1105.3
20260506190036 21 0 0.0 0.0 0.00 0.00 0.00 1105.2
20260506185531 21 315 0.0 0.0 0.00 0.00 0.00 1105.2
20260506185025 21 315 0.0 0.0 0.00 0.00 0.00 1105.0
20260506184520 21 315 0.0 0.0 0.00 0.00 0.00 1104.8
20260506184015 21 315 0.0 0.0 0.00 0.00 0.00 1104.9
20260506183509 21 315 0.0 0.0 0.00 0.00 0.00 1104.9
20260506183003 21 134 0.0 0.0 0.00 0.00 0.00 1105.0
20260506182457 21 134 0.0 0.0 0.00 0.00 0.00 1104.9
20260506181952 21 134 0.0 0.0 0.00 0.00 0.00 1104.9
20260506181446 21 134 0.0 0.0 0.00 0.00 0.00 1104.9
20260506180941 21 134 0.0 0.0 0.00 0.00 0.00 1104.9
20260506180436 22 134 0.0 0.0 0.00 0.00 0.00 1104.8
20260506175930 22 134 0.0 0.0 0.00 0.00 0.00 1104.8
20260506175425 22 134 0.0 0.0 0.00 0.00 0.00 1104.5
20260506174414 22 134 0.0 0.0 0.00 0.00 0.00 1104.6
20260506173909 22 134 0.0 0.0 0.00 0.00 0.00 1104.5
20260506173403 22 118 0.0 0.0 0.00 0.00 0.00 1104.5
20260506172858 22 89 0.0 0.0 0.00 0.00 0.00 1104.4
20260506172352 22 89 0.0 0.0 0.00 0.00 0.00 1104.4
20260506171847 22 89 0.0 0.0 0.00 0.00 0.00 1104.4
20260506171341 22 100 0.0 0.0 0.00 0.00 0.00 1104.4
20260506170836 22 179 0.0 0.0 0.00 0.00 0.00 1104.4
20260506170331 22 179 0.0 0.0 0.00 0.00 0.00 1104.4
20260506165825 22 179 0.0 0.0 0.00 0.00 0.00 1104.6
20260506165320 22 89 0.0 0.0 0.00 0.00 0.00 1104.5
20260506164814 22 89 0.0 0.0 0.00 0.00 0.00 1104.6
20260506164309 22 89 0.0 0.0 0.00 0.00 0.00 1104.6
20260506163804 22 89 0.0 0.0 0.00 0.00 0.00 1104.7
20260506163258 22 89 0.0 0.0 0.00 0.00 0.00 1104.7
20260506162753 22 89 0.0 0.0 0.00 0.00 0.00 1104.7
20260506162247 22 89 0.0 0.0 0.00 0.00 0.00 1104.6
20260506161742 23 89 0.0 0.0 0.00 0.00 0.00 1104.7
20260506161236 23 89 0.0 0.0 0.00 0.00 0.00 1104.8
20260506160731 23 89 0.0 0.0 0.00 0.00 0.00 1104.7
20260506160226 23 89 0.0 0.0 0.00 0.00 0.00 1104.5
20260506155720 23 89 0.0 0.0 0.00 0.00 0.00 1104.6
20260506155215 23 89 0.0 0.0 0.00 0.00 0.00 1104.6
20260506154709 22 89 0.0 0.0 0.00 0.00 0.00 1104.6
20260506154204 22 315 0.0 0.0 0.00 0.00 0.00 1104.6
20260506153659 22 315 0.0 0.0 0.00 0.00 0.00 1104.6
20260506153153 22 45 0.0 0.0 0.00 0.00 0.00 1104.5
20260506152648 22 179 0.0 0.0 0.00 0.00 0.00 1104.6
20260506152142 22 334 0.0 0.0 0.00 0.00 0.00 1104.6
20260506151637 22 184 0.0 0.0 0.00 0.00 0.00 1104.7
20260506151132 22 134 0.0 0.0 0.00 0.00 0.00 1104.8
20260506150626 22 319 0.0 0.0 0.00 0.00 0.00 1104.7
20260506150121 22 236 0.0 0.0 0.00 0.00 0.00 1104.8
20260506145615 22 76 0.0 0.0 0.00 0.00 0.00 1104.8
20260506145110 22 257 0.0 0.0 0.00 0.00 0.00 1105.0
20260506144604 22 45 0.0 0.0 0.00 0.00 0.00 1104.9
20260506144059 22 45 0.0 0.0 0.00 0.00 0.00 1104.9
20260506143554 22 45 0.0 0.0 0.00 0.00 0.00 1105.1
20260506143048 22 45 0.0 0.0 0.00 0.00 0.00 1105.0
20260506142543 23 270 0.0 0.0 0.00 0.00 0.00 1104.7
20260506142038 23 270 0.0 0.0 0.00 0.00 0.00 1104.7
20260506141532 23 227 0.0 0.0 0.00 0.00 0.00 1104.7
20260506141026 23 315 0.0 0.0 0.00 0.00 0.00 1104.7
20260506140520 24 189 0.0 0.0 0.00 0.00 0.00 1104.9
20260506140015 24 179 0.0 0.0 0.00 0.00 0.00 1104.8
20260506135509 25 187 0.0 0.0 0.00 0.00 0.00 1104.8
20260506135004 25 315 0.0 0.0 0.00 0.00 0.00 1104.9
20260506134459 26 17 0.0 0.0 0.00 0.00 0.00 1105.0
20260506133953 26 134 0.0 0.0 0.00 0.00 0.00 1105.0
20260506133448 26 134 0.0 0.0 0.00 0.00 0.00 1105.0
20260506132942 26 134 0.0 0.0 0.00 0.00 0.00 1105.0
20260506132437 26 0 0.0 0.0 0.00 0.00 0.00 1105.0
20260506131425 26 41 0.0 0.0 0.00 0.00 0.00 1105.1
20260506130920 26 344 0.0 0.0 0.00 0.00 0.00 1105.2
20260506130414 25 134 0.0 0.0 0.00 0.00 0.00 1105.4
20260506125909 25 0 0.0 0.0 0.00 0.00 0.00 1105.5
20260506125404 25 0 0.0 0.0 0.00 0.00 0.00 1105.5
20260506124858 25 45 0.0 0.0 0.00 0.00 0.00 1105.5
20260506124353 25 45 0.0 0.0 0.00 0.00 0.00 1105.6
20260506123847 25 162 0.0 0.0 0.00 0.00 0.00 1105.7
20260506123342 24 179 0.0 0.0 0.00 0.00 0.00 1105.6
20260506122837 25 217 0.0 0.0 0.00 0.00 0.00 1105.8
20260506122331 25 314 0.0 0.0 0.00 0.00 0.00 1105.7
20260506121826 25 234 0.0 0.0 0.00 0.00 0.00 1105.8
20260506121320 26 47 0.0 0.0 0.00 0.00 0.00 1105.8
20260506120815 26 45 0.0 0.0 0.00 0.00 0.00 1105.8
20260506120310 26 45 0.0 0.0 0.00 0.00 0.00 1105.7
20260506115804 26 218 0.0 0.0 0.00 0.00 0.00 1105.8
20260506115259 26 134 0.0 0.0 0.00 0.00 0.00 1105.8
20260506114753 26 134 0.0 0.0 0.00 0.00 0.00 1105.9
20260506114248 26 134 0.0 0.0 0.00 0.00 0.00 1105.8
20260506113742 26 82 0.0 0.0 0.00 0.00 0.00 1105.8
20260506113237 26 0 0.0 0.0 0.00 0.00 0.00 1105.9